Weather History for KTNB - December, 2013

Change the Weather History Date:

Tuesday, December 17, 2013

  Actual Average Record
Temperature  
Mean Temperature 40 °F -  
Max Temperature 50 °F - - ()
Min Temperature 32 °F - - ()
Degree Days  
Heating Degree Days 24    
Moisture  
Dew Point 27 °F    
Average Humidity 60    
Maximum Humidity 95    
Minimum Humidity 40    
Precipitation  
Precipitation 0.05 in - - ()
Sea Level Pressure  
Sea Level Pressure 30.01 in    
Wind  
Wind Speed 13 mph (WNW)    
Max Wind Speed 33 mph    
Max Gust Speed 47 mph    
Visibility 10 miles    
Events Rain    
T = Trace of Precipitation, MM = Missing Value Source: NWS Daily Summary

Daily Weather History Graph

Daily Weather History Graph

Search for Another Location

Airport or City:

Trip Planner

Search our weather history database for the weather conditions in past years. The results will help you decide how hot, cold, wet, or windy it might be!

Date:

Astronomy

Dec. 17, 2013 Rise Set
Actual Time 7:31 AM EST 5:13 PM EST
Civil Twilight 7:03 AM EST 5:42 PM EST
Nautical Twilight 6:30 AM EST 6:14 PM EST
Astronomical Twilight 5:59 AM EST 6:46 PM EST
Moon 5:50 PM EST (12/17) 7:28 AM EST (12/17)
Length of Visible Light 10h 39m
Length of Day
9h 42m
Full, 100% of the Moon is Illuminated
Dec 17
Full
Dec 25
Last Quarter
Jan 1
New
Jan 7
First Quarter
Jan 15
Full

Hourly Weather History & Observations

Time (EST) Temp. Windchill Dew Point Humidity Pressure Visibility Wind Dir Wind Speed Gust Speed Precip Events Conditions
12:15 AM 37.4 °F 27.8 °F 27.5 °F 67% 30.07 in 10.0 mi WNW 17.3 mph 23.0 mph N/A   Clear
12:55 AM 37.0 °F 28.5 °F 27.5 °F 68% 30.07 in 10.0 mi West 13.8 mph 20.7 mph N/A   Clear
1:15 AM 37.0 °F 28.5 °F 27.3 °F 68% 30.06 in 10.0 mi West 13.8 mph 20.7 mph N/A   Clear
1:35 AM 37.0 °F 28.1 °F 27.3 °F 68% 30.06 in 10.0 mi West 15.0 mph 20.7 mph N/A   Clear
1:55 AM 36.7 °F 28.0 °F 27.1 °F 68% 30.07 in 10.0 mi West 13.8 mph 18.4 mph N/A   Clear
2:15 AM 36.9 °F 30.1 °F 27.0 °F 67% 30.08 in 10.0 mi West 9.2 mph - N/A   Clear
2:35 AM 36.5 °F 30.3 °F 26.6 °F 67% 30.08 in 10.0 mi West 8.1 mph - N/A   Clear
2:55 AM 36.5 °F 31.8 °F 27.0 °F 68% 30.08 in 10.0 mi West 5.8 mph - N/A   Clear
3:15 AM 36.3 °F 30.8 °F 27.0 °F 69% 30.09 in 10.0 mi West 6.9 mph - N/A   Clear
3:35 AM 36.3 °F 32.5 °F 27.0 °F 69% 30.09 in 10.0 mi West 4.6 mph - N/A   Clear
3:55 AM 37.6 °F 30.5 °F 26.6 °F 65% 30.09 in 10.0 mi West 10.4 mph - N/A   Clear
4:15 AM 36.9 °F 30.1 °F 26.6 °F 66% 30.08 in 10.0 mi West 9.2 mph - N/A   Clear
4:35 AM 35.4 °F 29.0 °F 26.6 °F 70% 30.07 in 10.0 mi WNW 8.1 mph - N/A   Clear
4:55 AM 34.9 °F 28.3 °F 26.6 °F 72% 30.07 in 10.0 mi West 8.1 mph - N/A   Unknown
5:15 AM 35.4 °F 29.7 °F 26.6 °F 70% 30.07 in 10.0 mi West 6.9 mph - N/A   Clear
5:35 AM 33.6 °F 26.8 °F 26.6 °F 75% 30.07 in 10.0 mi West 8.1 mph - N/A   Clear
6:15 AM 34.9 °F 27.7 °F 26.4 °F 71% 30.07 in 10.0 mi West 9.2 mph - N/A   Unknown
6:35 AM 35.8 °F 28.3 °F 26.2 °F 68% 30.07 in 10.0 mi WNW 10.4 mph - N/A   Clear
6:55 AM 36.5 °F 28.2 °F 26.2 °F 66% 30.07 in 10.0 mi WNW 12.7 mph - N/A   Clear
7:15 AM 36.3 °F 28.0 °F 26.2 °F 67% 30.07 in 10.0 mi WNW 12.7 mph - N/A   Clear
7:35 AM 36.5 °F 27.8 °F 26.2 °F 66% 30.07 in 10.0 mi WNW 13.8 mph - N/A   Clear
7:55 AM 36.5 °F 28.7 °F 26.2 °F 66% 30.07 in 10.0 mi WNW 11.5 mph 17.3 mph N/A   Clear
8:15 AM 36.7 °F 29.9 °F 26.4 °F 66% 30.06 in 10.0 mi WNW 9.2 mph - N/A   Clear
8:35 AM 37.8 °F 30.2 °F 26.6 °F 64% 30.07 in 10.0 mi WNW 11.5 mph - N/A   Clear
8:55 AM 38.5 °F 31.6 °F 27.1 °F 64% 30.07 in 10.0 mi West 10.4 mph - N/A   Clear
9:15 AM 39.2 °F 33.6 °F 27.3 °F 62% 30.06 in 10.0 mi WNW 8.1 mph - N/A   Clear
9:35 AM 39.9 °F 33.9 °F 27.5 °F 61% 30.06 in 10.0 mi WNW 9.2 mph - N/A   Clear
9:55 AM 41.0 °F 34.3 °F 27.9 °F 60% 30.06 in 10.0 mi West 11.5 mph 17.3 mph N/A   Clear
10:15 AM 42.3 °F 34.8 °F 28.0 °F 57% 30.06 in 10.0 mi WNW 15.0 mph 19.6 mph N/A   Clear
10:35 AM 43.0 °F 36.8 °F 28.2 °F 56% 30.06 in 10.0 mi WNW 11.5 mph - N/A   Clear
10:55 AM 44.4 °F 40.0 °F 28.6 °F 54% 30.05 in 10.0 mi NW 8.1 mph - N/A   Clear
11:15 AM 44.8 °F 39.4 °F 28.8 °F 53% 30.05 in 10.0 mi WNW 10.4 mph 20.7 mph N/A   Clear
11:35 AM 45.1 °F 39.9 °F 29.1 °F 54% 30.03 in 10.0 mi WNW 10.4 mph - N/A   Clear
11:55 AM 45.3 °F 40.6 °F 29.1 °F 53% 30.03 in 10.0 mi NNW 9.2 mph - N/A   Clear
12:15 PM 45.7 °F 42.7 °F 29.3 °F 53% 30.01 in 10.0 mi NW 5.8 mph 17.3 mph N/A   Clear
12:35 PM 46.4 °F 41.5 °F 29.3 °F 51% 30.00 in 10.0 mi West 10.4 mph 16.1 mph N/A   Clear
12:55 PM 47.1 °F - 29.1 °F 50% 29.98 in 10.0 mi WNW 8.1 mph - N/A   Clear
1:15 PM 47.3 °F - 29.1 °F 49% 29.97 in 10.0 mi West 5.8 mph - N/A   Clear
1:35 PM 48.6 °F - 28.8 °F 46% 29.96 in 10.0 mi NW 9.2 mph - N/A   Clear
1:55 PM 48.9 °F - 28.4 °F 45% 29.95 in 10.0 mi WNW 11.5 mph 17.3 mph N/A   Clear
2:15 PM 49.1 °F - 28.4 °F 45% 29.95 in 10.0 mi WNW 11.5 mph 17.3 mph N/A   Clear
2:35 PM 49.1 °F - 28.2 °F 44% 29.94 in 10.0 mi WNW 12.7 mph 18.4 mph N/A   Clear
2:55 PM 49.5 °F - 28.2 °F 44% 29.93 in 10.0 mi WNW 9.2 mph 18.4 mph N/A   Clear
3:15 PM 49.6 °F - 27.7 °F 43% 29.93 in 10.0 mi WNW 15.0 mph 18.4 mph N/A   Clear
3:35 PM 49.5 °F - 26.6 °F 41% 29.93 in 10.0 mi West 11.5 mph 24.2 mph N/A   Clear
3:55 PM 49.5 °F - 26.1 °F 40% 29.92 in 10.0 mi West 10.4 mph 19.6 mph N/A   Clear
4:15 PM 49.3 °F - 25.5 °F 40% 29.91 in 10.0 mi West 6.9 mph 16.1 mph N/A   Clear
4:35 PM 49.1 °F - 25.7 °F 40% 29.91 in 10.0 mi West 5.8 mph - N/A   Clear
4:55 PM 47.7 °F - 26.1 °F 43% 29.91 in 10.0 mi NW 11.5 mph - N/A   Clear
5:15 PM 46.4 °F 42.9 °F 26.6 °F 46% 29.92 in 10.0 mi NW 6.9 mph - N/A   Clear
5:35 PM 45.5 °F 39.9 °F 26.6 °F 48% 29.92 in 10.0 mi WNW 11.5 mph 16.1 mph N/A   Clear
5:55 PM 45.0 °F 39.7 °F 27.1 °F 50% 29.93 in 10.0 mi WNW 10.4 mph - N/A   Scattered Clouds
6:15 PM 45.3 °F 37.6 °F 27.1 °F 49% 29.92 in 10.0 mi West 19.6 mph 27.6 mph N/A   Scattered Clouds
6:35 PM 44.8 °F 38.0 °F 27.3 °F 50% 29.93 in 10.0 mi West 15.0 mph 31.1 mph N/A   Scattered Clouds
6:55 PM 44.2 °F 38.0 °F 28.2 °F 53% 29.93 in 10.0 mi West 12.7 mph 32.2 mph N/A   Scattered Clouds
7:15 PM 37.2 °F 25.4 °F 32.7 °F 84% 29.97 in 2.0 mi NW 26.5 mph 47.2 mph 0.04 in Rain Heavy Rain
7:35 PM 36.9 °F 26.2 °F 35.6 °F 95% 29.96 in 7.0 mi WNW 20.7 mph 34.5 mph 0.05 in Rain Light Rain
7:55 PM 37.6 °F 29.6 °F 35.2 °F 91% 29.97 in 10.0 mi WNW 12.7 mph 21.9 mph 0.05 in   Scattered Clouds
8:15 PM 38.3 °F 28.1 °F 34.9 °F 87% 29.98 in 10.0 mi WNW 20.7 mph 28.8 mph N/A   Light Drizzle
8:35 PM 36.9 °F 25.4 °F 29.5 °F 75% 29.99 in 10.0 mi WNW 24.2 mph 35.7 mph N/A   Scattered Clouds
8:55 PM 36.0 °F 27.5 °F 28.4 °F 74% 30.00 in 10.0 mi WNW 12.7 mph 27.6 mph N/A   Mostly Cloudy
9:15 PM 35.6 °F 25.9 °F 26.6 °F 70% 30.00 in 10.0 mi WNW 16.1 mph 28.8 mph N/A   Scattered Clouds
9:35 PM 34.9 °F 23.9 °F 25.7 °F 69% 30.01 in 10.0 mi WNW 19.6 mph 27.6 mph N/A   Scattered Clouds
9:55 PM 34.7 °F 24.3 °F 23.4 °F 63% 30.01 in 10.0 mi WNW 17.3 mph 28.8 mph N/A   Clear
10:15 PM 34.0 °F 22.1 °F 21.6 °F 60% 30.01 in 10.0 mi WNW 21.9 mph 33.4 mph N/A   Clear
10:35 PM 33.8 °F 19.9 °F 19.8 °F 56% 30.00 in 10.0 mi NW 31.1 mph 39.1 mph N/A   Clear
10:55 PM 33.4 °F 18.9 °F 18.9 °F 55% 29.99 in 10.0 mi WNW 33.4 mph 42.6 mph N/A   Clear
11:15 PM 32.9 °F 19.6 °F 18.1 °F 55% 29.99 in 10.0 mi NW 26.5 mph 44.9 mph N/A   Clear
11:35 PM 32.5 °F 18.4 °F 18.9 °F 57% 29.98 in 10.0 mi WNW 29.9 mph 42.6 mph N/A   Clear
11:55 PM 32.0 °F 18.6 °F 18.0 °F 56% 29.98 in 10.0 mi NW 25.3 mph 43.7 mph N/A   Clear